Regional Weather Roundup
Issued by NWS

Home | Current Version | Previous Version | Graphics & Text | Print | Product List | Glossary On
Versions: 1 2 3 4 5 6 7 8 9 10 11 12 13 14 15 16 17 18 19 20 21 22 23 24 25 26 27 28 29 30 31 32 33 34 35 36 37 38 39 40 41 42 43 44 45 46 47 48 49 50
244
ASUS45 KTFX 200710
RWRMT
MONTANA REGIONAL WEATHER ROUNDUP
NATIONAL WEATHER SERVICE GREAT FALLS MT
1200 AM MST FRI JAN 20 2017

NOTE: "FAIR" INDICATES FEW OR NO CLOUDS BELOW 12000 FEET WITH NO
SIGNIFICANT WEATHER AND/OR OBSTRUCTIONS TO VISIBILITY.

MTZ001>007-043-200800-
WEST OF THE DIVIDE

CITY           SKY/WX    TMP DP  RH WIND       PRES   REMARKS
KALISPELL      FOG       23  22  96 CALM      29.55F VSB 1/4
MISSOULA       FOG       32  32 100 CALM      29.59S VSB 1/4
BUTTE          CLOUDY    20  16  84 S7        29.53F WCI  11
MULLAN PASS    CLOUDY    27  24  89 S3        29.50S FOG
ANACONDA         N/A     30  28  93 CALM      29.54F
DEER LODGE       N/A     32  32 100 CALM      29.56F
EUREKA           N/A     36  30  80 W5        29.55R
HAMILTON         N/A     30  30 100 CALM      29.57F
PLAINS           N/A     26  21  81 CALM      29.63R VSB 0
RONAN            N/A     34  30  85 CALM      29.63F
$$

MTZ008-052>055-200800-
SOUTHWEST MONTANA

CITY           SKY/WX    TMP DP  RH WIND       PRES   REMARKS
BOZEMAN        CLOUDY    33  28  81 NE6       29.53F WCI  28
DILLON         CLOUDY    32  18  56 S8        29.54F WCI  25
W YELLOWSTONE  CLOUDY    27  23  86 SW6       29.59S WCI  20
ENNIS          CLOUDY    30  23  74 S10G16    29.60S WCI  21
$$

MTZ009-010-012-014-046-048-049-054-200800-
EAST SLOPES AND CENTRAL MONTANA

CITY           SKY/WX    TMP DP  RH WIND       PRES   REMARKS
CUT BANK       CLOUDY    35  24  64 SW14      29.44F WCI  26
GREAT FALLS    CLOUDY    36  27  69 SW14      29.47F WCI  27
MALMSTROM AFB  CLOUDY    35  30  83 SW8       29.48F WCI  28
HELENA         CLOUDY    30  26  85 CALM      29.53S
AUGUSTA          N/A     32  22  66 W7        29.47S WCI  26
BOWMANS CRNR   CLOUDY    31  26  81 S7        29.47S WCI  24
CHOTEAU          N/A     34  25  69 SW6       29.48F WCI  29
CONRAD           N/A     32  29  89 SW7       29.52F WCI  26
POWER          MOCLDY    33  26  74 SW9       29.46S WCI  26
RAYNESFORD     MOCLDY    40  27  61 SW5       29.47F
ULM            CLOUDY    36  28  71 MISG      29.48F
$$

MTZ011-013-016-021-045-047-050-051-200800-
NORTH CENTRAL MONTANA

CITY           SKY/WX    TMP DP  RH WIND       PRES   REMARKS
HAVRE          CLOUDY    34  31  88 SW12      29.44F WCI  25
LEWISTOWN      CLOUDY    36  30  79 W9        29.47F WCI  29
CHINOOK          N/A     37  30  75 CALM      29.44S
DENTON         MOCLDY    40  30  69 W24G32    29.44S
FORT BENTON      N/A     37  30  75 MISG      29.48S
GEYSER         CLOUDY    38  29  70 W13       29.46S WCI  30
GRASS RANGE    DRIZZLE   39  33  78 W13       29.44S WCI  31
JUDITH GAP     LGT RAIN  35  30  82 SW6       29.47F WCI  30
ROY            MOCLDY    42  33  71 MISG      29.44S
STANFORD       CLOUDY    38  29  68 W14       29.46F WCI  30
WINIFRED       MOCLDY    38  31  77 W9        29.46S WCI  31
$$

MTZ017>020-022>027-061-062-200800-
NORTHEAST MONTANA

CITY           SKY/WX    TMP DP  RH WIND       PRES   REMARKS
GLASGOW        CLOUDY    29  24  82 W7        29.42F WCI  22
JORDAN           N/A     36  31  82 W8        29.44F WCI  30
SIDNEY         CLOUDY    14  12  92 CALM      29.43F
WOLF POINT     CLOUDY    18  15  88 SW8       29.44S WCI   8
PLENTYWOOD       N/A     23  21  93 NE5       29.40F
POPLAR           N/A     19  16  86 W3        29.44S
SCOBEY           N/A     23  16  75 CALM      29.42F
$$

MTZ028>42-056>058-200800-
SOUTHCENTRAL AND SOUTHEAST MONTANA

CITY           SKY/WX    TMP DP  RH WIND       PRES   REMARKS
BAKER          CLOUDY    19  15  84 W3        29.43F
BILLINGS       DRIZZLE   33  30  88 SW10      29.51F WCI  25
LIVINGSTON     CLOUDY    38  24  57 W17       29.51F WCI  28
MILES CITY     CLOUDY    19  15  84 S5        29.47R
BIG TIMBER     CLOUDY    39  27  60 W26       29.52F WCI  28
EKALAKA          N/A     30  18  61 W5        29.47F
FORSYTH          N/A     30  25  80 W7        29.47S WCI  23
HARLOWTON      CLOUDY    36  29  75 W20       29.48F WCI  26
LAUREL           N/A     32  23  69 SW6       29.54F WCI  26
ROUNDUP          N/A     36  31  82 SW6       29.45F WCI  31
$$

REGIONAL REPORTS...DAKOTAS

CITY           SKY/WX    TMP DP  RH WIND       PRES   REMARKS
WILLISTON      CLOUDY    11   9  92 S3        29.42F FOG
MINOT          CLOUDY    20  17  88 SE6       29.40S WCI  12
DICKINSON      CLOUDY    18  14  84 W9        29.38F WCI   7
BEACH            N/A     27  23  86 W8        29.45R WCI  18
CROSBY           N/A     19  18  93 S8        29.42S WCI   9
TIOGA            N/A     16  16 100 W5        29.41F
WATFORD CITY     N/A     18  16  93 SW3       29.42S
BISMARCK       FOG       14  12  92 SE3       29.46F VSB 1/4
GRAND FORKS    FOG       35  33  92 S8        29.54F VSB 1   WCI  29
FARGO          CLOUDY    48  36  63 S10       29.55F HAZE
BUFFALO SD       N/A     25  17  72 W13       29.34S WCI  14
RAPID CITY     CLOUDY    25  17  72 NW6       29.40F WCI  18
$$

REGIONAL REPORTS...WYOMING/IDAHO/WASHINGTON

CITY           SKY/WX    TMP DP  RH WIND       PRES   REMARKS
GILLETTE       CLOUDY    29  23  78 W8        29.46F WCI  21
SHERIDAN       CLOUDY    34  24  67 SW8       29.49F WCI  27
BUFFALO WY     CLOUDY    34  19  54 NW7       29.48F WCI  28
CODY           CLOUDY    34  23  64 W3        29.50F
YELLOWSTONE LA   N/A     22  19  89 VRB5      29.58F
IDAHO FALLS    CLOUDY    28  27  96 S8        29.65F WCI  20
SALMON         CLOUDY    25  23  93 CALM      29.60F
BOISE          CLOUDY    35  31  85 SE8       29.62F WCI  29
SPOKANE        PTCLDY    33  29  85 SE8       29.54F WCI  26
$$

REGIONAL REPORTS...ALBERTA

CITY           SKY/WX    TMP DP  RH WIND       PRES   REMARKS
EDMONTON       CLEAR     28  18  64 W7          N/A  WCI  21
CALGARY        MOCLDY    28  18  64 VRB2      29.32R
LETHBRIDGE     CLOUDY    37  25  60 W12G17    29.41R WCI  30
MEDICINE HAT   PTCLDY    36  28  75 SW13      29.38F WCI  27
WATERTON GATE    N/A     36  18  48 SW21G29     N/A  WCI  24
MILK RIVER       N/A     36  28  75 W12         N/A  WCI  27
$$

REGIONAL REPORTS...SASKATCHEWAN

CITY           SKY/WX    TMP DP  RH WIND       PRES   REMARKS
SWIFT CURRENT  CLOUDY    37  28  70 SW17G23   29.33F WCI  28
REGINA         PTCLDY    25  23  93 SE8       29.37S WCI  16
SASKATOON      MOCLDY    36  30  80 SW8       29.29S WCI  29
CYPRESS HILLS    N/A     37  18  44 W12G17      N/A  WCI  30
VAL MARIE        N/A     32  30  93 S5          N/A
ASSINIBOIA       N/A     19  18  93 S5          N/A
$$




USA.gov is the U.S. government's official web portal to all federal, state and local government web resources and services.